Location: Saratoga Springs
(43.0831°N, 73.7850°W)
Time: 09:31:38
(UTC-04:00)

Transit 2A Rocket - Pass Details

Date: 21 April 2024
Orbit: 584 x 909 km, 66.7° (Epoch: 25 May)

Event Time Altitude Azimuth Distance (km) Brightness Sun altitude
Rises 22:12:17 0° 317° (NW) 3,360 9.8 -23.5°
Reaches altitude 10° 22:15:03 10° 304° (NW) 2,471 8.7 -23.8°
Maximum altitude 22:19:38 25° 251° (WSW) 1,693 7.0 -24.4°
Enters shadow 22:22:41 17° 211° (SSW) 2,108 7.1 -24.7°
